Location: Unspecified
(0.0000°N, 0.0000°E)
Time: 18:18:56
(UTC+00:00)

Kosmos-2004 - Pass Details

Date: 25 May 2026
Orbit: 969 x 1012 km, 83.0° (Epoch: 10 June)

Event Time Altitude Azimuth Distance (km) Brightness Sun altitude
Exits shadow 04:18:25 45° 263° (W) 1,308 6.2 -22.9°
Maximum altitude 04:18:47 45° 273° (W) 1,300 6.2 -22.8°
Drops below altitude 10° 04:24:41 10° 344° (NNW) 2,725 8.4 -21.5°
Sets 04:27:20 0° 351° (N) 3,676 9.2 -20.9°
